Flag for Kazakhstan Weather past 2 weeks in Astana, Kazakhstan

Now
97 °F

Passing clouds.


Feels Like: 92 °F
Forecast: 67 / 93 °F
Wind: 13 mph from West

Location: Astana

Current Time: Aug 22, 2014 at 4:19:40 PM

Latest Report: Aug 22, 2014 at 3:30 PM


Visibility: N/A

Pressure: 29.86 "Hg

Humidity: 13%

Dew point: 39 °F

Location of AstanaLocation

Historic Weather in Astana — Graph

°F

Astana temperature yesterday

Maximum temperature yesterday: 90 °F (at 5:00 PM)
Minimum temperature yesterday: 57 °F (at 5:00 AM)
Average temperature yesterday: 75 °F

Past Weeks' High & Low Weather Summary

 TemperatureHumidityPressure
High99 °F (Aug 19, 2:30 PM)94% (Aug 8, 7:30 AM)30.24 "Hg (Aug 8, 7:30 AM)
Low43 °F (Aug 9, 5:30 AM)10% (Aug 19, 2:30 PM)29.50 "Hg (Aug 13, 4:00 AM)
Average70 °F51%29.90 "Hg
* Reported Aug 7 3:00 PM — Aug 22 3:00 PM, Astana, Weather by CustomWeather, © 2014

Note: Actual official high and low records may vary slightly from our data, if they occured in-between our weather recording intervals... More about our weather records

Advertising

Astana weather history for previous 24 hours

 ConditionsComfort  
Time TempWeatherWind HumidityBarometerVisibility
3:00 PM
Aug 22
95 °FPassing clouds.13 mph14%29.86 "HgN/A
2:30 PM95 °FSunny.13 mph14%29.89 "Hg10 mi
2:00 PM93 °FSunny.15 mph15%29.89 "Hg10 mi
1:30 PM93 °FSunny.15 mph16%29.89 "Hg10 mi
1:00 PM91 °FSunny.15 mph16%29.92 "Hg10 mi
12:30 PM91 °FPassing clouds.10 mph16%29.92 "HgN/A
12:00 PM91 °FPassing clouds.10 mph17%29.92 "HgN/A
11:30 AM86 °FPassing clouds.8 mph22%29.92 "HgN/A
11:00 AM82 °FSunny.10 mph23%29.92 "Hg10 mi
10:30 AM79 °FPassing clouds.6 mph28%29.95 "HgN/A
10:00 AM75 °FSunny.6 mph31%29.95 "Hg10 mi
9:30 AM73 °FSunny.1 mph31%29.95 "Hg10 mi
9:00 AM72 °FSunny.6 mph41%29.95 "Hg10 mi
8:30 AM70 °FSunny.6 mph46%29.95 "Hg10 mi
8:00 AM64 °FSunny.3 mph56%29.95 "Hg10 mi
7:30 AM66 °FSunny.3 mph52%29.95 "Hg10 mi
7:00 AM57 °FSunny.3 mph67%29.95 "Hg10 mi
6:30 AM57 °FSunny.1 mph63%29.95 "Hg10 mi
6:00 AM63 °FClear.3 mph52%29.95 "Hg10 mi
5:30 AM63 °FClear.6 mph49%29.95 "Hg10 mi
5:00 AM61 °FClear.6 mph55%29.95 "Hg10 mi
4:30 AM61 °FClear.3 mph55%29.95 "Hg10 mi
4:00 AM63 °FClear.6 mph49%29.95 "Hg10 mi
3:30 AM64 °FClear.3 mph46%29.95 "Hg10 mi
3:00 AM64 °FClear.6 mph49%29.95 "Hg10 mi
2:30 AM66 °FClear.8 mph49%29.95 "Hg10 mi
2:00 AM66 °FClear.6 mph46%29.95 "Hg10 mi
1:30 AM66 °FClear.6 mph46%29.98 "Hg10 mi
1:00 AM66 °FClear.6 mph46%29.98 "Hg10 mi
12:30 AM68 °FClear.6 mph40%29.98 "Hg10 mi
12:00 AM66 °FClear.6 mph46%29.98 "Hg10 mi
11:30 PM
Aug 21
68 °FClear.6 mph46%29.98 "Hg10 mi
11:00 PM70 °FClear.8 mph46%29.98 "Hg10 mi
10:30 PM72 °FClear.8 mph47%30.01 "Hg10 mi
10:00 PM72 °FClear.6 mph53%30.01 "Hg10 mi
9:30 PM75 °FClear.6 mph61%30.01 "Hg10 mi
9:00 PM77 °FClear.6 mph61%30.01 "Hg10 mi
8:30 PM79 °FClear.3 mph58%30.01 "Hg10 mi
8:00 PM81 °FSunny.1 mph45%30.01 "Hg10 mi
7:30 PM86 °FSunny.No wind25%30.04 "Hg10 mi
7:00 PM88 °FPassing clouds.3 mph24%30.04 "HgN/A
6:30 PM88 °FPassing clouds.3 mph24%30.04 "HgN/A
6:00 PM88 °FSunny.3 mph27%30.04 "Hg10 mi
5:30 PM90 °FPassing clouds.3 mph22%30.04 "HgN/A
5:00 PM90 °FSunny.8 mph21%30.04 "Hg10 mi
4:30 PM88 °FSunny.8 mph22%30.04 "Hg10 mi
4:00 PM86 °FPartly sunny.6 mph29%30.07 "HgN/A
Weather by CustomWeather, © 2014

See weather overviewHow to use our weather pages